H1 CPF 2 NER 2024 5 7 9 128 01 glonass145 H2 2213001 9145 54031 2024 5 7 0 0 0 2024 5 10 23 45 0 900 1 1 0 0 0 1 H9 10 0 60437 0.00000 0 -1583874.038 20019862.647 -15737950.019 10 0 60437 900.00000 0 -2218103.371 21695681.602 -13244578.749 10 0 60437 1800.00000 0 -2615609.294 23111031.490 -10494155.019 10 0 60437 2700.00000 0 -2807933.271 24215479.175 -7540070.760 10 0 60437 3600.00000 0 -2835729.584 24968038.090 -4439662.322 10 0 60437 4500.00000 0 -2746797.008 25338855.753 -1253099.324 10 0 60437 5400.00000 0 -2593810.287 25310454.569 1957781.401 10 0 60437 6300.00000 0 -2431847.724 24878473.973 5130674.150 10 0 60437 7200.00000 0 -2315819.846 24051882.775 8204011.663 10 0 60437 8100.00000 0 -2297908.128 22852652.717 11118157.923 10 0 60437 9000.00000 0 -2425122.418 21314906.734 13816563.317 10 0 60437 9900.00000 0 -2737080.574 19483577.373 16246859.724 10 0 60437 10800.00000 0 -3264104.513 17412631.178 18361874.463 10 0 60437 11700.00000 0 -4025713.530 15162932.859 20120543.684 10 0 60437 12600.00000 0 -5029579.111 12799837.996 21488707.746 10 0 60437 13500.00000 0 -6270986.116 10390614.118 22439773.531 10 0 60437 14400.00000 0 -7732824.139 8001797.005 22955231.162 10 0 60437 15300.00000 0 -9386110.650 5696591.656 23025015.288 10 0 60437 16200.00000 0 -11191025.455 3532425.415 22647704.010 10 0 60437 17100.00000 0 -13098414.620 1558754.317 21830551.449 10 0 60437 18000.00000 0 -15051702.327 -184786.622 20589352.969 10 0 60437 18900.00000 0 -16989132.005 -1669812.881 18948145.153 10 0 60437 19800.00000 0 -18846244.048 -2880140.657 16938745.642 10 0 60437 20700.00000 0 -20558487.173 -3812218.809 14600141.079 10 0 60437 21600.00000 0 -22063854.560 -4475025.090 11977734.309 10 0 60437 22500.00000 0 -23305434.352 -4889431.722 9122464.871 10 0 60437 23400.00000 0 -24233767.339 -5087067.677 6089819.537 10 0 60437 24300.00000 0 -24808912.350 -5108726.404 2938752.019 10 0 60437 25200.00000 0 -25002131.948 -5002387.046 -269466.969 10 0 60437 26100.00000 0 -24797126.840 -4820933.748 -3472446.425 10 0 60437 27000.00000 0 -24190766.433 -4619670.561 -6607894.600 10 0 60437 27900.00000 0 -23193284.245 -4453738.255 -9614836.857 10 0 60437 28800.00000 0 -21827929.636 -4375543.508 -12434807.256 10 0 60437 29700.00000 0 -20130090.293 -4432310.370 -15012989.990 10 0 60437 30600.00000 0 -18145922.383 -4663858.574 -17299287.898 10 0 60437 31500.00000 0 -15930545.973 -5100703.482 -19249296.950 10 0 60437 32400.00000 0 -13545881.525 -5762558.569 -20825167.746 10 0 60437 33300.00000 0 -11058218.128 -6657304.232 -21996337.550 10 0 60437 34200.00000 0 -8535615.095 -7780466.758 -22740119.075 10 0 60437 35100.00000 0 -6045245.176 -9115229.812 -23042135.244 10 0 60437 36000.00000 0 -3650789.647 -10632978.306 -22896592.144 10 0 60437 36900.00000 0 -1409993.102 -12294352.247 -22306385.540 10 0 60437 37800.00000 0 627521.281 -14050766.809 -21283039.420 10 0 60437 38700.00000 0 2422086.263 -15846335.464 -19846478.146 10 0 60437 39600.00000 0 3945399.865 -17620116.189 -18024636.816 10 0 60437 40500.00000 0 5181452.283 -19308587.258 -15852917.446 10 0 60437 41400.00000 0 6126933.337 -20848249.532 -13373501.338 10 0 60437 42300.00000 0 6791104.976 -22178246.742 -10634530.808 10 0 60437 43200.00000 0 7195145.710 -23242894.405 -7689175.860 10 0 60437 44100.00000 0 7370995.828 -23994011.660 -4594603.671 10 0 60437 45000.00000 0 7359753.121 -24392958.406 -1410870.712 10 0 60437 45900.00000 0 7209687.631 -24412292.314 1800241.074 10 0 60437 46800.00000 0 6973959.910 -24036976.117 4976421.530 10 0 60437 47700.00000 0 6708139.656 -23265084.284 8056039.648 10 0 60437 48600.00000 0 6467629.995 -22107979.177 10979337.590 10 0 60437 49500.00000 0 6305106.496 -20589948.865 13689588.187 10 0 60437 50400.00000 0 6268079.410 -18747321.334 16134193.472 10 0 60437 51300.00000 0 6396682.310 -16627091.611 18265703.090 10 0 60437 52200.00000 0 6721780.765 -14285118.527 20042733.080 10 0 60437 53100.00000 0 7263481.223 -11783965.786 21430767.476 10 0 60437 54000.00000 0 8030103.492 -9190476.563 22402827.547 10 0 60437 54900.00000 0 9017660.822 -6573181.884 22939995.981 10 0 60437 55800.00000 0 10209870.390 -3999649.827 23031786.075 10 0 60437 56700.00000 0 11578694.893 -1533884.956 22676348.808 10 0 60437 57600.00000 0 13085393.763 766114.697 21880513.672 10 0 60437 58500.00000 0 14682041.197 2850542.266 20659662.095 10 0 60437 59400.00000 0 16313448.586 4679618.138 19037435.421 10 0 60437 60300.00000 0 17919411.839 6225001.715 17045282.412 10 0 60437 61200.00000 0 19437190.170 7470720.601 14721854.345 10 0 60437 62100.00000 0 20804112.892 8413579.075 12112258.755 10 0 60437 63000.00000 0 21960204.948 9063029.407 9267185.710 10 0 60437 63900.00000 0 22850720.712 9440512.151 6241923.268 10 0 60437 64800.00000 0 23428479.049 9578293.965 3095281.137 10 0 60437 65700.00000 0 23655900.723 9517852.798 -111556.369 10 0 60437 66600.00000 0 23506661.539 9307879.569 -3316225.275 10 0 60437 67500.00000 0 22966890.758 9001981.835 -6456400.898 10 0 60437 68400.00000 0 22035863.538 8656187.658 -9471016.292 10 0 60437 69300.00000 0 20726157.556 8326356.377 -12301455.646 10 0 60437 70200.00000 0 19063266.763 8065606.916 -14892698.675 10 0 60437 71100.00000 0 17084688.141 7921873.328 -17194393.211 10 0 60437 72000.00000 0 14838519.651 7935691.723 -19161834.766 10 0 60437 72900.00000 0 12381628.034 8138312.653 -20756834.012 10 0 60437 73800.00000 0 9777463.059 8550219.051 -21948455.558 10 0 60437 74700.00000 0 7093609.468 9180112.449 -22713614.081 10 0 60437 75600.00000 0 4399178.443 10024410.342 -23037516.883 10 0 60437 76500.00000 0 1762146.881 11067275.943 -22913944.938 10 0 60437 77400.00000 0 -753245.437 12281179.176 -22345367.629 10 0 60437 78300.00000 0 -3088933.390 13627965.536 -21342889.517 10 0 60437 79200.00000 0 -5195198.550 15060388.169 -19926030.531 10 0 60437 80100.00000 0 -7032486.587 16524039.235 -18122344.108 10 0 60437 81000.00000 0 -8572795.895 17959599.897 -15966880.679 10 0 60437 81900.00000 0 -9800581.079 19305314.971 -13501506.795 10 0 60437 82800.00000 0 -10713135.155 20499588.788 -10774092.910 10 0 60437 83700.00000 0 -11320436.022 21483593.635 -7837585.294 10 0 60437 84600.00000 0 -11644465.074 22203781.492 -4748979.840 10 0 60437 85500.00000 0 -11718027.809 22614193.673 -1568217.519 10 0 60438 0.00000 0 -11583127.176 22678471.296 1642976.919 10 0 60438 900.00000 0 -11288958.926 22371481.912 4822292.207 10 0 60438 1800.00000 0 -10889614.405 21680493.639 7908036.224 10 0 60438 2700.00000 0 -10441587.979 20605847.143 10840332.318 10 0 60438 3600.00000 0 -10001194.784 19161096.551 13562278.819 10 0 60438 4500.00000 0 -9622008.006 17372612.811 16021050.946 10 0 60438 5400.00000 0 -9352423.997 15278665.325 18168923.613 10 0 60438 6300.00000 0 -9233458.072 12928019.396 19964195.542 10 0 60438 7200.00000 0 -9296864.092 10378107.174 21371997.018 10 0 60438 8100.00000 0 -9563657.288 7692847.404 22364965.974 10 0 60438 9000.00000 0 -10043102.923 4940203.778 22923779.606 10 0 60438 9900.00000 0 -10732213.877 2189582.514 23037531.386 10 0 60438 10800.00000 0 -11615779.005 -490823.637 22703946.246 10 0 60438 11700.00000 0 -12666921.997 -3036635.505 21929429.608 10 0 60438 12600.00000 0 -13848168.232 -5389724.517 20728949.006 10 0 60438 13500.00000 0 -15112975.861 -7500386.073 19125750.041 10 0 60438 14400.00000 0 -16407667.764 -9329159.556 17150911.547 10 0 60438 15300.00000 0 -17673684.022 -10848219.751 14842747.881 10 0 60438 16200.00000 0 -18850060.758 -12042282.221 12246069.249 10 0 60438 17100.00000 0 -19876031.363 -12908985.401 9411313.816 10 0 60438 18000.00000 0 -20693640.527 -13458734.018 6393568.161 10 0 60438 18900.00000 0 -21250260.588 -13714011.146 3251494.953 10 0 60438 19800.00000 0 -21500903.501 -13708188.657 46188.857 10 0 60438 20700.00000 0 -21410230.069 -13483887.072 -3160016.577 10 0 60438 21600.00000 0 -20954170.765 -13090955.080 -6304767.219 10 0 60438 22500.00000 0 -20121088.824 -12584155.110 -9326907.360 10 0 60438 23400.00000 0 -18912435.681 -12020653.877 -12167674.836 10 0 60438 24300.00000 0 -17342870.390 -11457425.044 -14771848.317 10 0 60438 25200.00000 0 -15439837.346 -10948674.698 -17088823.850 10 0 60438 26100.00000 0 -13242619.626 -10543399.203 -19073599.402 10 0 60438 27000.00000 0 -10800907.250 -10283179.094 -20687648.196 10 0 60438 27900.00000 0 -8172940.037 -10200302.378 -21899664.117 10 0 60438 28800.00000 0 -5423302.381 -10316296.502 -22686165.118 10 0 60438 29700.00000 0 -2620461.612 -10640930.711 -23031943.535 10 0 60438 30600.00000 0 165848.005 -11171730.629 -22930355.239 10 0 60438 31500.00000 0 2867287.360 -11894025.251 -22383442.649 10 0 60438 32400.00000 0 5419510.800 -12781524.171 -21401889.776 10 0 60438 33300.00000 0 7764593.662 -13797400.702 -20004810.567 10 0 60438 34200.00000 0 9853189.232 -14895835.348 -18219374.860 10 0 60438 35100.00000 0 11646326.741 -16023954.907 -16080279.254 10 0 60438 36000.00000 0 13116776.921 -17124085.866 -13629073.030 10 0 60438 36900.00000 0 14249929.635 -18136227.631 -10913352.017 10 0 60438 37800.00000 0 15044148.376 -19000641.782 -7985835.788 10 0 60438 38700.00000 0 15510588.216 -19660448.640 -4903345.837 10 0 60438 39600.00000 0 15672486.100 -20064121.937 -1725704.411 10 0 60438 40500.00000 0 15563954.458 -20167776.571 1485424.751 10 0 60438 41400.00000 0 15228329.802 -19937152.941 4667731.321 10 0 60438 42300.00000 0 14716146.619 -19349214.060 7759465.700 10 0 60438 43200.00000 0 14082822.510 -18393287.712 10700635.274 10 0 60438 44100.00000 0 13386152.549 -17071705.052 13434166.430 10 0 60438 45000.00000 0 12683718.745 -15399907.989 15907009.778 10 0 60438 45900.00000 0 12030323.929 -13406019.965 18071167.312 10 0 60438 46800.00000 0 11475558.235 -11129897.007 19884621.811 10 0 60438 47700.00000 0 11061600.648 -8621697.635 21312150.732 10 0 60438 48600.00000 0 10821348.188 -5940030.107 22326009.140 10 0 60438 49500.00000 0 10776951.493 -3149752.972 22906468.762 10 0 60438 50400.00000 0 10938818.584 -319519.329 23042202.848 10 0 60438 51300.00000 0 11305128.996 2480834.269 22730509.512 10 0 60438 52200.00000 0 11861879.183 5182946.856 21977369.028 10 0 60438 53100.00000 0 12583457.896 7722530.439 20797333.681 10 0 60438 54000.00000 0 13433728.048 10041798.662 19213251.787 10 0 60438 54900.00000 0 14367570.269 12091626.426 17255830.555 10 0 60438 55800.00000 0 15332823.883 13833351.108 14963045.613 10 0 60438 56700.00000 0 16272544.055 15240140.817 12379407.923 10 0 60438 57600.00000 0 17127480.305 16297872.984 9555101.755 10 0 60438 58500.00000 0 17838671.849 17005487.021 6545010.126 10 0 60438 59400.00000 0 18350049.966 17374796.812 3407646.495 10 0 60438 60300.00000 0 18610936.956 17429771.570 204013.657 10 0 60438 61200.00000 0 18578335.306 17205316.111 -3003587.525 10 0 60438 62100.00000 0 18218909.445 16745602.823 -6152775.715 10 0 60438 63000.00000 0 17510575.315 16102026.701 -9182308.607 10 0 60438 63900.00000 0 16443629.658 15330870.798 -12033279.742 10 0 60438 64800.00000 0 15021370.413 14490781.707 -14650268.625 10 0 60438 65700.00000 0 13260181.227 13640162.558 -16982421.234 10 0 60438 66600.00000 0 11189075.809 12834594.358 -18984439.520 10 0 60438 67500.00000 0 8848720.651 12124394.991 -20617460.617 10 0 60438 68400.00000 0 6289976.524 11552419.023 -21849808.896 10 0 60438 69300.00000 0 3572019.316 11152191.034 -22657606.643 10 0 60438 70200.00000 0 760118.151 10946450.817 -23025232.120 10 0 60438 71100.00000 0 -2076837.126 10946171.197 -22945616.778 10 0 60438 72000.00000 0 -4868956.793 11150089.285 -22420376.484 10 0 60438 72900.00000 0 -7548012.208 11544770.280 -21459774.812 10 0 60438 73800.00000 0 -10050027.160 12105200.645 -20082519.470 10 0 60438 74700.00000 0 -12317692.928 12795885.309 -18315396.078 10 0 60438 75600.00000 0 -14302507.763 13572402.468 -16192746.428 10 0 60438 76500.00000 0 -15966553.013 14383350.477 -13755801.248 10 0 60438 77400.00000 0 -17283833.134 15172604.820 -11051880.203 10 0 60438 78300.00000 0 -18241124.984 15881790.198 -8133474.430 10 0 60438 79200.00000 0 -18838302.165 16452863.625 -5057229.123 10 0 60438 80100.00000 0 -19088122.037 16830699.699 -1882845.771 10 0 60438 81000.00000 0 -19015485.394 16965568.989 1328074.771 10 0 60438 81900.00000 0 -18656200.874 16815404.902 4513225.981 10 0 60438 82800.00000 0 -18055306.804 16347763.129 7610802.910 10 0 60438 83700.00000 0 -17265021.714 15541390.653 10560699.523 10 0 60438 84600.00000 0 -16342410.217 14387337.610 13305672.901 10 0 60438 85500.00000 0 -15346862.784 12889564.418 15792451.744 10 0 60439 0.00000 0 -14337495.704 11065017.855 17972767.620 10 0 60439 900.00000 0 -13370580.065 8943170.708 19804290.351 10 0 60439 1800.00000 0 -12497109.139 6565045.511 21251446.770 10 0 60439 2700.00000 0 -11760604.448 3981758.541 22286111.245 10 0 60439 3600.00000 0 -11195253.894 1252645.759 22888151.864 10 0 60439 4500.00000 0 -10824459.477 -1556953.519 23045823.122 10 0 60439 5400.00000 0 -10659855.657 -4378164.224 22755997.343 10 0 60439 6300.00000 0 -10700839.640 -7141193.043 22024230.227 10 0 60439 7200.00000 0 -10934633.546 -9777988.089 20864658.920 10 0 60439 8100.00000 0 -11336876.121 -12224831.128 19299734.072 10 0 60439 9000.00000 0 -11872719.496 -14424755.269 17359790.436 10 0 60439 9900.00000 0 -12498385.213 -16329688.015 15082463.631 10 0 60439 10800.00000 0 -13163114.245 -17902230.784 12511963.703 10 0 60439 11700.00000 0 -13811428.970 -19117000.948 9698219.007 10 0 60439 12600.00000 0 -14385611.583 -19961480.548 6695906.678 10 0 60439 13500.00000 0 -14828293.940 -20436336.493 3563388.402 10 0 60439 14400.00000 0 -15085048.861 -20555199.211 361572.320 10 0 60439 15300.00000 0 -15106872.504 -20343909.613 -2847276.337 10 0 60439 16200.00000 0 -14852451.903 -19839266.784 -6000752.146 10 0 60439 17100.00000 0 -14290120.690 -19087329.956 -9037529.443 10 0 60439 18000.00000 0 -13399419.270 -18141347.298 -11898560.787 10 0 60439 18900.00000 0 -12172192.463 -17059399.830 -14528229.850 10 0 60439 19800.00000 0 -10613177.334 -15901860.671 -16875435.784 10 0 60439 20700.00000 0 -8740055.562 -14728777.530 -18894587.568 10 0 60439 21600.00000 0 -6582967.340 -13597289.260 -20546488.974 10 0 60439 22500.00000 0 -4183506.505 -12559185.497 -21799097.146 10 0 60439 23400.00000 0 -1593238.339 -11658712.080 -22628140.460 10 0 60439 24300.00000 0 1128198.617 -10930714.163 -23017584.281 10 0 60439 25200.00000 0 3915328.215 -10399194.505 -22959936.218 10 0 60439 26100.00000 0 6699317.306 -10076346.725 -22456385.604 10 0 60439 27000.00000 0 9410598.835 -9962103.271 -21516775.056 10 0 60439 27900.00000 0 11981529.193 -10044216.204 -20159405.058 10 0 60439 28800.00000 0 14348970.196 -10298866.587 -18410675.589 10 0 60439 29700.00000 0 16456689.330 -10691776.161 -16304571.812 10 0 60439 30600.00000 0 18257479.425 -11179774.000 -13882003.682 10 0 60439 31500.00000 0 19714910.507 -11712751.788 -11190012.106 10 0 60439 32400.00000 0 20804641.883 -12235925.113 -8280856.834 10 0 60439 33300.00000 0 21515240.732 -12692305.240 -5211003.503 10 0 60439 34200.00000 0 21848473.966 -13025277.031 -2040029.349 10 0 60439 35100.00000 0 21819062.118 -13181174.037 1170531.283 10 0 60439 36000.00000 0 21453906.409 -13111741.935 4358379.318 10 0 60439 36900.00000 0 20790822.176 -12776386.007 7461658.000 10 0 60439 37800.00000 0 19876832.446 -12144107.456 10420151.185 10 0 60439 38700.00000 0 18766093.797 -11195046.293 13176449.643 10 0 60439 39600.00000 0 17517541.943 -9921565.067 15677062.747 10 0 60439 40500.00000 0 16192356.085 -8328826.860 17873454.151 10 0 60439 41400.00000 0 14851348.491 -6434842.133 19722981.598 10 0 60439 42300.00000 0 13552388.752 -4269981.112 21189722.901 10 0 60439 43200.00000 0 12347970.528 -1875970.690 22245172.412 10 0 60439 44100.00000 0 11283022.509 695583.812 22868794.792 10 0 60439 45000.00000 0 10393055.071 3385091.895 23048425.501 10 0 60439 45900.00000 0 9702719.999 6127208.796 22780510.357 10 0 60439 46800.00000 0 9224843.418 8853312.611 22070179.345 10 0 60439 47700.00000 0 8959972.366 11494125.827 20931152.958 10 0 60439 48600.00000 0 8896453.935 13982373.205 19385482.363 10 0 60439 49500.00000 0 9011043.688 16255366.291 17463127.775 10 0 60439 50400.00000 0 9270017.793 18257407.415 15201382.529 10 0 60439 51300.00000 0 9630742.076 19941913.362 12644153.339 10 0 60439 52200.00000 0 10043631.789 21273170.284 9841110.109 10 0 60439 53100.00000 0 10454419.201 22227646.551 6846721.485 10 0 60439 54000.00000 0 10806632.814 22794808.700 3719194.732 10 0 60439 54900.00000 0 11044182.809 22977406.414 519340.696 10 0 60439 55800.00000 0 11113942.541 22791214.823 -2690613.636 10 0 60439 56700.00000 0 10968215.877 22264245.423 -5848241.233 10 0 60439 57600.00000 0 10566984.890 21435459.385 -8892135.393 10 0 60439 58500.00000 0 9879841.697 20353038.193 -11763109.788 10 0 60439 59400.00000 0 8887521.638 19072285.246 -14405354.104 10 0 60439 60300.00000 0 7582972.008 17653247.602 -16767522.245 10 0 60439 61200.00000 0 5971910.241 16158158.737 -18803731.551 10 0 60439 62100.00000 0 4072847.196 14648810.435 -20474453.520 10 0 60439 63000.00000 0 1916573.709 13183964.628 -21747278.947 10 0 60439 63900.00000 0 -454868.787 11816913.900 -22597542.973 10 0 60439 64800.00000 0 -2989691.194 10593292.775 -23008798.515 10 0 60439 65700.00000 0 -5628271.166 9549230.948 -22973129.542 10 0 60439 66600.00000 0 -8305399.837 8709925.100 -22491298.758 10 0 60439 67500.00000 0 -10952768.003 8088688.057 -21572727.396 10 0 60439 68400.00000 0 -13501589.083 7686514.073 -20235307.922 10 0 60439 69300.00000 0 -15885250.479 7492177.261 -18505053.527 10 0 60439 70200.00000 0 -18041883.909 7482857.991 -16415591.276 10 0 60439 71100.00000 0 -19916748.582 7625269.940 -14007508.630 10 0 60439 72000.00000 0 -21464328.787 7877239.587 -11327565.845 10 0 60439 72900.00000 0 -22650059.313 8189671.044 -8427789.283 10 0 60439 73800.00000 0 -23451607.494 8508812.900 -5364462.970 10 0 60439 74700.00000 0 -23859659.074 8778731.123 -2197037.821 10 0 60439 75600.00000 0 -23878175.749 8943883.317 1013020.431 10 0 60439 76500.00000 0 -23524114.264 8951685.379 4203422.289 10 0 60439 77400.00000 0 -22826619.416 8754961.824 7312261.377 10 0 60439 78300.00000 0 -21825725.302 8314175.931 10279213.701 10 0 60439 79200.00000 0 -20570619.652 7599345.069 13046706.024 10 0 60439 80100.00000 0 -19117544.319 6591559.778 15561030.731 10 0 60439 81000.00000 0 -17527420.066 5284041.744 17773385.663 10 0 60439 81900.00000 0 -15863295.176 3682695.113 19640819.050 10 0 60439 82800.00000 0 -14187724.614 1806126.752 21127061.444 10 0 60439 83700.00000 0 -12560189.180 -314866.848 22203228.880 10 0 60439 84600.00000 0 -11034662.265 -2638326.106 22848383.949 10 0 60439 85500.00000 0 -9657425.574 -5112627.078 23049944.073 10 0 60440 0.00000 0 -8465224.808 -7678391.202 22803929.193 10 0 60440 900.00000 0 -7483841.397 -10270729.440 22115043.729 10 0 60440 1800.00000 0 -6727141.222 -12821725.229 20996591.324 10 0 60440 2700.00000 0 -6196637.675 -15263058.596 19470223.080 10 0 60440 3600.00000 0 -5881588.727 -17528659.611 17565523.729 10 0 60440 4500.00000 0 -5759622.989 -19557282.567 15319443.050 10 0 60440 5400.00000 0 -5797868.298 -21294893.637 12775582.845 10 0 60440 6300.00000 0 -5954535.003 -22696772.422 9983352.740 10 0 60440 7200.00000 0 -6180886.801 -23729239.452 6997010.851 10 0 60440 8100.00000 0 -6423515.384 -24370937.193 3874607.804 10 0 60440 9000.00000 0 -6626822.068 -24613610.717 676854.781 10 0 60440 9900.00000 0 -6735600.577 -24462355.238 -2534061.964 10 0 60440 10800.00000 0 -6697610.670 -23935320.201 -5695696.426 10 0 60440 11700.00000 0 -6466032.574 -23062882.667 -8746563.625 10 0 60440 12600.00000 0 -6001697.181 -21886325.236 -11627341.207 10 0 60440 13500.00000 0 -5274996.526 -20456074.737 -14282027.796 10 0 60440 14400.00000 0 -4267392.713 -18829576.405 -16659034.969 10 0 60440 15300.00000 0 -2972460.577 -17068893.630 -18712191.228 10 0 60440 16200.00000 0 -1396419.210 -15238134.607 -20401638.394 10 0 60440 17100.00000 0 441870.859 -13400814.250 -21694603.182 10 0 60440 18000.00000 0 2511445.478 -11617262.085 -22566029.347 10 0 60440 18900.00000 0 4770287.870 -9942184.470 -22999058.749 10 0 60440 19800.00000 0 7166849.572 -8422482.630 -22985352.606 10 0 60440 20700.00000 0 9641978.463 -7095416.983 -22525247.393 10 0 60440 21600.00000 0 12131174.167 -5987193.430 -21627742.882 10 0 60440 22500.00000 0 14567077.589 -5112029.479 -20310322.998 10 0 60440 23400.00000 0 16882091.553 -4471737.935 -18598613.196 10 0 60440 24300.00000 0 19011024.166 -4055844.220 -16525881.062 10 0 60440 25200.00000 0 20893645.490 -3842231.083 -14132389.746 10 0 60440 26100.00000 0 22477051.635 -3798282.460 -11464616.598 10 0 60440 27000.00000 0 23717738.308 -3882477.383 -8574351.907 10 0 60440 27900.00000 0 24583297.867 -4046365.977 -5517695.028 10 0 60440 28800.00000 0 25053669.484 -4236843.636 -2353967.175 10 0 60440 29700.00000 0 25121890.636 -4398626.856 855438.107 10 0 60440 30600.00000 0 24794318.895 -4476825.806 4048244.566 10 0 60440 31500.00000 0 24090315.098 -4419504.585 7162499.817 10 0 60440 32400.00000 0 23041401.465 -4180120.612 10137775.449 10 0 60440 33300.00000 0 21689930.157 -3719739.726 12916337.402 10 0 60440 34200.00000 0 20087318.163 -3008932.931 15444263.885 10 0 60440 35100.00000 0 18291922.438 -2029274.120 17672489.365 10 0 60440 36000.00000 0 16366644.110 -774374.812 19557754.565 10 0 60440 36900.00000 0 14376361.704 749588.711 21063444.346 10 0 60440 37800.00000 0 12385300.357 2523879.274 22160297.545 10 0 60440 38700.00000 0 10454446.380 4517735.029 22826975.340 10 0 60440 39600.00000 0 8639114.675 6689417.116 23050477.282 10 0 60440 40500.00000 0 6986769.901 8987726.654 22826397.038 10 0 60440 41400.00000 0 5535191.812 11353929.305 22159012.745 10 0 60440 42300.00000 0 4311060.771 13724008.599 21061209.908 10 0 60440 43200.00000 0 3329022.065 16031155.292 19554237.835 10 0 60440 44100.00000 0 2591267.609 18208389.981 17667303.674 10 0 60440 45000.00000 0 2087652.117 20191210.194 15437011.221 10 0 60440 45900.00000 0 1796338.371 21920151.826 12906654.698 10 0 60440 46800.00000 0 1684943.935 23343157.963 10125380.604 10 0 60440 47700.00000 0 1712140.496 24417655.799 7147233.552 10 0 60440 48600.00000 0 1829637.653 25112254.351 4030104.502 10 0 60440 49500.00000 0 1984466.624 25407991.405 834601.936 10 0 60440 50400.00000 0 2121466.366 25299076.993 -2377131.605 10 0 60440 51300.00000 0 2185865.886 24793101.957 -5542633.987 10 0 60440 52200.00000 0 2125852.307 23910702.767 -8600344.590 10 0 60440 53100.00000 0 1895014.830 22684696.841 -11490807.425 10 0 60440 54000.00000 0 1454560.014 21158725.013 -14157832.134 10 0 60440 54900.00000 0 775203.619 19385458.650 -16549589.724 10 0 60440 55800.00000 0 -161341.913 17424447.213 -18619621.305 10 0 60440 56700.00000 0 -1361347.978 15339697.004 -20327740.156 10 0 60440 57600.00000 0 -2818562.085 13197082.927 -21640809.761 10 0 60440 58500.00000 0 -4514233.960 11061701.741 -22533383.068 10 0 60440 59400.00000 0 -6417675.033 8995277.346 -22988191.153 10 0 60440 60300.00000 0 -8487328.541 7053726.052 -22996472.462 10 0 60440 61200.00000 0 -10672306.071 5284982.761 -22558136.855 10 0 60440 62100.00000 0 -12914327.001 3727177.730 -21681761.888 10 0 60440 63000.00000 0 -15149980.518 2407238.762 -20384421.795 10 0 60440 63900.00000 0 -17313216.502 1339975.762 -18691352.760 10 0 60440 64800.00000 0 -19337961.987 527684.392 -16635461.020 10 0 60440 65700.00000 0 -21160754.707 -39716.111 -14256683.292 10 0 60440 66600.00000 0 -22723284.363 -384018.163 -11601211.710 10 0 60440 67500.00000 0 -23974735.986 -537563.347 -8720598.107 10 0 60440 68400.00000 0 -24873837.929 -541632.192 -5670754.739 10 0 60440 69300.00000 0 -25390529.165 -444454.979 -2510870.718 10 0 60440 70200.00000 0 -25507176.401 -298928.174 697734.978 10 0 60440 71100.00000 0 -25219290.251 -160133.464 3892801.685 10 0 60440 72000.00000 0 -24535710.589 -82764.648 7012333.338 10 0 60440 72900.00000 0 -23478253.399 -118571.483 9995799.425 10 0 60440 73800.00000 0 -22080833.886 -313928.851 12785307.317 10 0 60440 74700.00000 0 -20388102.510 -707634.332 15326723.250 10 0 60440 75600.00000 0 -18453650.828 -1329027.624 17570720.365 10 0 60440 76500.00000 0 -16337861.883 -2196511.770 19473733.728 10 0 60440 77400.00000 0 -14105494.609 -3316539.279 20998804.075 10 0 60440 78300.00000 0 -11823102.583 -4683106.832 22116294.285 10 0 60440 79200.00000 0 -9556394.223 -6277781.051 22804464.975 10 0 60440 80100.00000 0 -7367643.875 -8070255.640 23049898.298 10 0 60440 81000.00000 0 -5313260.968 -10019418.111 22847761.762 10 0 60440 81900.00000 0 -3441617.847 -12074883.036 22201906.882 10 0 60440 82800.00000 0 -1791226.166 -14178929.217 21124800.393 10 0 60440 83700.00000 0 -389337.236 -16268761.168 19637288.866 10 0 60440 84600.00000 0 748975.849 -18279001.547 17768200.626 10 0 60440 85500.00000 0 1621216.523 -20144311.114 15553791.991 99